CZ-3B R/B (43110 NORAD) Tracking and Keplerian Element Data.

This shows tracking and keplerian element data for the satellite.

Feedback or suggestion? Click here.

NameCZ-3B R/B
Epoch Orbit129
Epoch Day40.76504413
Epoch Year2018
Argument of Perigee179.5906
Mean Anonmoly181.4442
Mean Motion4.39818501
Decay Rate0.00011394
L11 43110U 18003D 18040.76504413 .00011394 00000-0 45061-3 0 9991
L22 43110 55.0005 32.2249 5812226 179.5906 181.4442 4.39818501 1296

Live tracking and technical data element details for CZ-3B R/B (NORAD 43110). CZ-3B R/B can be tracked NOW for your location showing map with azimuth and elevation plus other details from your city location.

Tracking and technical details about the satellite: track the satellite on the map from your city or location and see movement details for azimuth, elevation, latitude, longitude, range, height, and movement on the map or in text.

Es'hailsat 2 (coming in 2018)

IsCatalogInMostPopularTable: catalog: 43110, numindb: 141
Update: records affected: 1

GetName: 43110 CZ-3B R/B

Hit Count: updated at: Thu, 22 Mar 2018 13:39:14 GMT